Estación de El Cardal INIA

Ultimos registro cada 15 minutos 29
Estación Fecha / Hora Temperatura Humedad Lluvia Velocidad Dirección Radiación Presion
29 El Cardal INIA 06-05-2026 07:00 8,6 98,7 0,2 0,5 243 0 998
28 El Cardal INIA 06-05-2026 06:45 8,7 98,5 0,8 0,3 238 0 998
27 El Cardal INIA 06-05-2026 06:30 8,8 98,8 0,2 0 0 0 998
26 El Cardal INIA 06-05-2026 06:15 8,8 98,8 0 0,2 244 0 998
25 El Cardal INIA 06-05-2026 06:00 8,8 98,9 0 0,3 248 0 998
24 El Cardal INIA 06-05-2026 05:45 8,8 99,1 0 0,2 271 0 998
23 El Cardal INIA 06-05-2026 05:30 8,8 99,2 0 0,2 257 0 997
22 El Cardal INIA 06-05-2026 05:15 8,8 99,1 0 0 0 0 998
21 El Cardal INIA 06-05-2026 05:00 8,9 98,7 0,8 0 0 0 997
20 El Cardal INIA 06-05-2026 04:45 9 98,5 1,5 0 0 0 998
19 El Cardal INIA 06-05-2026 04:30 9,1 98,5 1,1 0 0 0 998
18 El Cardal INIA 06-05-2026 04:15 9,1 98,8 0,8 0 0 0 998
17 El Cardal INIA 06-05-2026 04:00 9,1 99,1 0,8 0 0 0 998
16 El Cardal INIA 06-05-2026 03:45 9,1 98,8 0,8 0 0 0 998
15 El Cardal INIA 06-05-2026 03:30 9,2 98,6 0,8 0 0 0 998
14 El Cardal INIA 06-05-2026 03:15 9,3 98,4 0,9 0 0 0 998
13 El Cardal INIA 06-05-2026 03:00 9,4 98,4 1,2 0 0 0 998
12 El Cardal INIA 06-05-2026 02:45 9,4 98,2 1,9 0 0 0 998
11 El Cardal INIA 06-05-2026 02:30 9,6 98,2 2,2 0 0 0 998
10 El Cardal INIA 06-05-2026 02:15 9,7 97,9 1,9 0 0 0 998
9 El Cardal INIA 06-05-2026 02:00 10 97,6 1,4 0 228 0 998
8 El Cardal INIA 06-05-2026 01:45 10,5 97,1 2,3 0 0 0 998
7 El Cardal INIA 06-05-2026 01:30 11,3 96,3 2,3 0 193 0 998
6 El Cardal INIA 06-05-2026 01:15 12,9 94,8 0 0,1 242 0 998
5 El Cardal INIA 06-05-2026 01:00 13,2 95,3 0,1 0 0 0 997
4 El Cardal INIA 06-05-2026 00:45 13,2 94,5 0 0 0 0 997
3 El Cardal INIA 06-05-2026 00:30 13,3 94,4 0 0 0 0 997
2 El Cardal INIA 06-05-2026 00:15 13,3 93,9 0 0,5 10 0 998
1 El Cardal INIA 06-05-2026 00:00 13,4 92,9 0 0,6 352 0 998